{"data":{"norad_id":68314,"epoch":"2026-05-24T21:00:14.289696Z","epoch_age_seconds":89766,"freshness":"FRESH","line1":"1 68314U 26057W   26144.87516539  .00242471  00000+0  15783-2 0  9998","line2":"2 68314  97.2846 271.1870 0005564  73.6304 286.5573 15.75213315 10289","mean_motion":15.75213315,"eccentricity":0.0005564,"inclination_deg":97.2846,"raan_deg":271.187,"arg_perigee_deg":73.6304,"mean_anomaly_deg":286.5573,"bstar":0.0015783,"rev_number":1028,"period_min":91.416190193898,"perigee_km":340.28402678778,"apogee_km":347.76444781264,"semimajor_km":6722.1612373002,"source":"CELESTRAK","updated_at":"2026-05-25T13:38:21.919974Z"}}